Location: Bailleul
(50.3375°N, 2.8513°E)
Time: 11:33:23
(UTC+00:00)

Cosmos 2016 Rocket - Pass Details

Date: 01 November 2021
Orbit: 946 x 1001 km, 83.0° (Epoch: 30 November)

Event Time Altitude Azimuth Distance (km) Brightness Sun altitude
Rises 17:16:53 0° 139° (SE) 3,637 6.7 -8.8°
Reaches altitude 10° 17:20:05 10° 123° (ESE) 2,688 5.9 -9.3°
Maximum altitude 17:24:16 20° 80° (E) 2,077 5.1 -10.0°
Drops below altitude 10° 17:28:26 10° 36° (NE) 2,684 5.9 -10.6°
Sets 17:31:36 0° 20° (NNE) 3,631 6.7 -11.1°
